FW4683 Weather Reports


Display with metric or nautical units.
time (UTC)temp
F
wind
direction
speed
MPH
gust
MPH
rain 1hr
in
rain 24hr
in
rain mn
in
humidity
%
barometer
mb
20260903042505 76 95 0.0 1.0 0.00 0.00 0.00 91 1017.3
20260903042005 76 96 0.0 1.0 0.00 0.00 0.00 91 1017.4
20260903041509 76 95 0.0 1.0 0.00 0.00 0.00 91 1017.4
20260903041008 77 96 0.0 1.0 0.00 0.00 0.00 91 1017.5
20260903040505 77 96 0.0 1.0 0.00 0.00 0.00 91 1017.5
20260903040011 77 96 0.0 1.0 0.00 0.00 0.00 91 1017.5
20260903035505 77 96 0.0 1.0 0.00 0.00 0.00 91 1017.4
20260903035005 77 96 0.0 1.0 0.00 0.00 0.00 91 1017.6
20260903034505 77 96 0.0 1.0 0.00 0.00 0.00 91 1017.6
20260903034005 77 96 0.0 0.0 0.00 0.00 0.00 90 1017.6
20260903033503 77 96 0.0 0.0 0.00 0.00 0.00 90 1017.5
20260903032506 78 96 0.0 0.0 0.00 0.00 0.00 90 1017.7
20260903032004 78 96 0.0 0.0 0.00 0.00 0.00 90 1017.6
20260903031504 78 96 0.0 0.0 0.00 0.00 0.00 90 1017.7
20260903031004 78 95 0.0 0.0 0.00 0.00 0.00 89 1017.7
20260903030505 78 96 0.0 1.0 0.00 0.00 0.00 89 1017.7
20260903030004 78 96 0.0 1.0 0.00 0.00 0.00 89 1017.6
20260903025504 78 96 0.0 1.0 0.00 0.00 0.00 89 1017.6
20260903025002 79 96 0.0 1.0 0.00 0.00 0.00 89 1017.8
20260903024503 79 96 0.0 1.0 0.00 0.00 0.00 88 1017.7
20260903024003 80 95 0.0 1.0 0.00 0.00 0.00 86 1017.7
20260903023504 80 96 0.0 0.0 0.00 0.00 0.00 85 1017.7
20260903022504 80 95 0.0 1.0 0.00 0.00 0.00 85 1017.7
20260903022003 80 96 0.0 1.0 0.00 0.00 0.00 85 1017.7
20260903021502 80 96 0.0 1.0 0.00 0.00 0.00 85 1017.7
20260903021002 80 95 0.0 1.0 0.00 0.00 0.00 86 1017.7
20260903020502 80 95 0.0 1.0 0.00 0.00 0.00 87 1017.5
20260903020008 80 96 0.0 1.0 0.00 0.00 0.00 87 1017.6
20260903015502 80 96 0.0 1.0 0.00 0.00 0.00 87 1017.5
20260903015001 80 96 0.0 1.0 0.00 0.00 0.00 87 1017.4
20260903014500 80 96 0.0 1.0 0.00 0.00 0.00 87 1017.5
20260903014002 80 95 0.0 2.0 0.00 0.00 0.00 87 1017.4
20260903013604 80 96 0.0 2.0 0.00 0.00 0.00 87 1017.3
20260903013502 80 96 0.0 2.0 0.00 0.00 0.00 87 1017.2
20260903012505 81 96 0.0 1.0 0.00 0.00 0.00 86 1017.2
20260903012005 81 95 0.0 1.0 0.00 0.00 0.00 86 1017.0
20260903011503 82 95 0.0 1.0 0.00 0.00 0.00 86 1017.1
20260903011003 82 95 0.0 1.0 0.00 0.00 0.00 85 1017.0
20260903010504 82 96 0.0 0.0 0.00 0.00 0.00 84 1016.8
20260903010104 83 95 0.0 1.0 0.00 0.00 0.00 84 1016.8
20260903005503 84 96 0.0 1.0 0.00 0.00 0.00 82 1016.8
20260903005005 83 96 0.0 1.0 0.00 0.00 0.00 83 1016.8
20260903004504 84 96 0.0 1.0 0.00 0.00 0.00 82 1016.7
20260903004002 84 95 0.0 1.0 0.00 0.00 0.00 81 1016.7
20260903003502 84 96 0.0 1.0 0.00 0.00 0.00 81 1016.7
20260903002503 84 96 0.0 1.0 0.00 0.00 0.00 80 1016.5
20260903002004 85 96 0.0 1.0 0.00 0.00 0.00 79 1016.5
20260903001501 85 96 0.0 2.0 0.00 0.00 0.00 79 1016.5
20260903001000 85 96 0.0 2.0 0.00 0.00 0.00 79 1016.4
20260903000601 86 95 0.0 1.0 0.00 0.00 0.00 76 1016.4
20260903000104 87 95 0.0 1.0 0.00 0.00 0.00 74 1016.4
20260902235602 87 96 0.0 2.0 0.00 0.00 0.00 73 1016.2
20260902235101 87 96 0.0 2.0 0.00 0.00 0.00 73 1016.2
20260902234603 87 96 0.0 1.0 0.00 0.00 0.00 73 1016.2
20260902234103 87 96 0.0 1.0 0.00 0.00 0.00 72 1016.2
20260902233559 88 96 0.0 3.0 0.00 0.00 0.00 71 1016.2
20260902232556 89 95 1.0 3.0 0.00 0.00 0.00 68 1016.2
20260902232055 89 96 0.0 4.0 0.00 0.00 0.00 67 1016.2
20260902231556 90 96 1.0 4.0 0.00 0.00 0.00 66 1016.2
20260902231056 90 95 3.0 4.0 0.00 0.00 0.00 64 1016.2
20260902230554 91 96 0.0 3.0 0.00 0.00 0.00 64 1016.1
20260902230105 91 96 0.0 4.0 0.00 0.00 0.00 65 1016.2
20260902225555 91 96 2.0 4.0 0.00 0.00 0.00 63 1016.3
20260902225055 92 96 1.0 4.0 0.00 0.00 0.00 62 1016.2
20260902224605 92 95 0.0 7.0 0.00 0.00 0.00 61 1016.3
20260902224053 91 95 0.0 7.0 0.00 0.00 0.00 62 1016.4
20260902223553 91 95 3.0 7.0 0.00 0.00 0.00 61 1016.4
20260902222555 92 95 3.0 7.0 0.00 0.00 0.00 59 1016.3
20260902222053 92 96 2.0 7.0 0.00 0.00 0.00 59 1016.4
20260902221553 93 96 3.0 7.0 0.00 0.00 0.00 59 1016.4
20260902221053 93 96 1.0 6.0 0.00 0.00 0.00 58 1016.4
20260902220555 92 96 1.0 8.0 0.00 0.00 0.00 58 1016.4
20260902220057 92 96 4.0 8.0 0.00 0.00 0.00 58 1016.4
20260902215552 93 95 3.0 8.0 0.00 0.00 0.00 56 1016.4
20260902215052 93 95 1.0 7.0 0.00 0.00 0.00 57 1016.4
20260902214605 93 96 2.0 7.0 0.00 0.00 0.00 56 1016.4
20260902214052 93 96 2.0 7.0 0.00 0.00 0.00 56 1016.4
20260902213556 93 96 1.0 8.0 0.00 0.00 0.00 57 1016.4
20260902212552 93 96 4.0 8.0 0.00 0.00 0.00 57 1016.5
20260902212052 93 96 4.0 8.0 0.00 0.00 0.00 57 1016.5
20260902211551 93 96 2.0 10.0 0.00 0.00 0.00 57 1016.5
20260902211052 93 96 3.0 10.0 0.00 0.00 0.00 57 1016.5
20260902210551 94 96 2.0 8.0 0.00 0.00 0.00 57 1016.5
20260902210052 94 96 1.0 8.0 0.00 0.00 0.00 57 1016.4
20260902205549 94 96 3.0 8.0 0.00 0.00 0.00 56 1016.6
20260902205049 94 96 3.0 8.0 0.00 0.00 0.00 56 1016.5
20260902204548 94 95 0.0 6.0 0.00 0.00 0.00 56 1016.6
20260902204046 93 96 0.0 7.0 0.00 0.00 0.00 57 1016.6
20260902203548 93 96 3.0 7.0 0.00 0.00 0.00 56 1016.6
20260902202548 92 96 3.0 9.0 0.00 0.00 0.00 58 1016.5
20260902202047 93 96 2.0 9.0 0.00 0.00 0.00 57 1016.6
20260902201549 94 96 4.0 9.0 0.00 0.00 0.00 56 1016.7
20260902201050 93 95 4.0 9.0 0.00 0.00 0.00 57 1016.7
20260902200545 94 95 2.0 7.0 0.00 0.00 0.00 55 1016.7
20260902200044 94 96 1.0 4.0 0.00 0.00 0.00 53 1016.7
20260902195543 94 96 1.0 3.0 0.00 0.00 0.00 54 1016.7
20260902195041 93 96 1.0 7.0 0.00 0.00 0.00 55 1016.9
20260902194540 93 95 2.0 7.0 0.00 0.00 0.00 55 1016.8
20260902194044 93 96 0.0 6.0 0.00 0.00 0.00 55 1016.9
20260902193539 93 96 1.0 6.0 0.00 0.00 0.00 56 1017.0
20260902192539 92 96 5.0 7.0 0.00 0.00 0.00 57 1017.1
20260902192036 92 96 3.0 7.0 0.00 0.00 0.00 57 1017.2
20260902191541 92 96 0.0 7.0 0.00 0.00 0.00 58 1017.3
20260902191036 92 96 3.0 9.0 0.00 0.00 0.00 57 1017.3
20260902190538 93 96 4.0 9.0 0.00 0.00 0.00 57 1017.4
20260902190035 93 96 2.0 7.0 0.00 0.00 0.00 57 1017.5
20260902185535 92 96 3.0 7.0 0.00 0.00 0.00 57 1017.5
20260902185034 92 96 1.0 8.0 0.00 0.00 0.00 57 1017.5
20260902184541 93 96 4.0 6.0 0.00 0.00 0.00 57 1017.5
20260902184037 93 96 3.0 6.0 0.00 0.00 0.00 58 1017.5
20260902183533 92 96 0.0 8.0 0.00 0.00 0.00 59 1017.7
20260902182533 92 96 0.0 7.0 0.00 0.00 0.00 58 1017.8
20260902182033 92 96 3.0 7.0 0.00 0.00 0.00 58 1017.8
20260902181533 92 96 2.0 4.0 0.00 0.00 0.00 58 1017.8
20260902181035 92 95 0.0 4.0 0.00 0.00 0.00 58 1017.9
20260902180532 91 96 0.0 7.0 0.00 0.00 0.00 59 1017.8
20260902180035 91 96 2.0 7.0 0.00 0.00 0.00 59 1017.7
20260902175532 91 96 1.0 6.0 0.00 0.00 0.00 60 1017.8
20260902175031 91 96 2.0 8.0 0.00 0.00 0.00 60 1017.8
20260902174543 91 96 4.0 8.0 0.00 0.00 0.00 60 1018.0
20260902174030 91 96 1.0 8.0 0.00 0.00 0.00 60 1018.0
20260902173530 92 95 4.0 7.0 0.00 0.00 0.00 59 1018.1
20260902172530 91 96 0.0 9.0 0.00 0.00 0.00 59 1018.2
20260902172030 91 96 3.0 9.0 0.00 0.00 0.00 59 1018.2
20260902171536 93 96 1.0 3.0 0.00 0.00 0.00 59 1018.3
20260902171032 92 95 0.0 4.0 0.00 0.00 0.00 58 1018.3
20260902170525 91 96 0.0 6.0 0.00 0.00 0.00 59 1018.4
20260902170025 91 96 0.0 7.0 0.00 0.00 0.00 62 1018.4
20260902165527 91 96 0.0 4.0 0.00 0.00 0.00 61 1018.5
20260902165024 90 95 0.0 6.0 0.00 0.00 0.00 63 1018.6
20260902164521 89 96 1.0 6.0 0.00 0.00 0.00 63 1018.8
20260902164021 89 96 0.0 4.0 0.00 0.00 0.00 64 1018.8
20260902163520 88 96 2.0 8.0 0.00 0.00 0.00 65 1018.8
20260902162518 88 96 1.0 4.0 0.00 0.00 0.00 65 1019.0
20260902162018 88 96 2.0 4.0 0.00 0.00 0.00 65 1019.0
20260902161517 88 96 1.0 4.0 0.00 0.00 0.00 63 1019.0
20260902161019 87 96 1.0 7.0 0.00 0.00 0.00 64 1019.0
20260902160516 87 95 4.0 8.0 0.00 0.00 0.00 64 1019.1
20260902160025 87 96 4.0 8.0 0.00 0.00 0.00 65 1019.2
20260902155519 87 96 3.0 8.0 0.00 0.00 0.00 66 1019.4
20260902155019 87 96 2.0 6.0 0.00 0.00 0.00 66 1019.5
20260902154517 87 96 2.0 6.0 0.00 0.00 0.00 64 1019.4
20260902154017 87 95 0.0 4.0 0.00 0.00 0.00 67 1019.3
20260902153514 87 96 1.0 4.0 0.00 0.00 0.00 66 1019.3
20260902152513 87 96 1.0 7.0 0.00 0.00 0.00 68 1019.6
20260902152011 86 96 2.0 7.0 0.00 0.00 0.00 69 1019.7
20260902151511 86 96 1.0 3.0 0.00 0.00 0.00 69 1019.6
20260902151010 86 95 1.0 2.0 0.00 0.00 0.00 69 1019.5
20260902150508 85 95 1.0 2.0 0.00 0.00 0.00 70 1019.5
20260902150008 85 96 0.0 3.0 0.00 0.00 0.00 70 1019.6
20260902145510 85 96 1.0 3.0 0.00 0.00 0.00 71 1019.5
20260902145006 84 96 0.0 3.0 0.00 0.00 0.00 71 1019.6
20260902144505 84 95 1.0 3.0 0.00 0.00 0.00 71 1019.6
20260902144003 83 95 0.0 2.0 0.00 0.00 0.00 73 1019.5
20260902143502 82 96 0.0 3.0 0.00 0.00 0.00 73 1019.5
20260902142502 81 96 3.0 4.0 0.00 0.00 0.00 76 1019.5
20260902142059 81 95 0.0 4.0 0.00 0.00 0.00 78 1019.5
20260902141610 80 96 2.0 6.0 0.00 0.00 0.00 77 1019.5
20260902141104 80 96 2.0 6.0 0.00 0.00 0.00 78 1019.3
20260902140559 80 95 0.0 2.0 0.00 0.00 0.00 77 1019.4
20260902140058 80 96 0.0 4.0 0.00 0.00 0.00 79 1019.3
20260902135558 79 96 0.0 4.0 0.00 0.00 0.00 79 1019.4
20260902135055 79 96 0.0 4.0 0.00 0.00 0.00 80 1019.4
20260902134555 79 96 0.0 4.0 0.00 0.00 0.00 81 1019.4
20260902134054 78 96 1.0 4.0 0.00 0.00 0.00 81 1019.4
20260902133554 78 96 1.0 4.0 0.00 0.00 0.00 82 1019.4
20260902133153 77 96 0.0 3.0 0.00 0.00 0.00 82 1019.4
20260902132552 77 96 0.0 3.0 0.00 0.00 0.00 83 1019.3
20260902132051 77 96 1.0 3.0 0.00 0.00 0.00 83 1019.4
20260902131555 76 96 0.0 4.0 0.00 0.00 0.00 84 1019.4
20260902131049 76 96 1.0 4.0 0.00 0.00 0.00 84 1019.4
20260902130548 75 96 0.0 2.0 0.00 0.00 0.00 85 1019.4
20260902130051 75 96 0.0 2.0 0.00 0.00 0.00 86 1019.4
20260902125545 74 96 0.0 3.0 0.00 0.00 0.00 86 1019.4
20260902125046 74 95 1.0 3.0 0.00 0.00 0.00 86 1019.4
20260902124559 74 96 0.0 1.0 0.00 0.00 0.00 86 1019.5
20260902124042 74 96 0.0 2.0 0.00 0.00 0.00 86 1019.4
20260902123542 74 96 0.0 2.0 0.00 0.00 0.00 87 1019.5
20260902123159 73 96 0.0 1.0 0.00 0.00 0.00 88 1019.4
20260902122541 73 96 0.0 1.0 0.00 0.00 0.00 88 1019.4
20260902122039 72 96 0.0 2.0 0.00 0.00 0.00 89 1019.6
20260902121544 72 96 0.0 2.0 0.00 0.00 0.00 89 1019.4
20260902121037 72 96 0.0 0.0 0.00 0.00 0.00 90 1019.4
20260902120537 71 96 0.0 1.0 0.00 0.00 0.00 91 1019.5
20260902120037 71 96 0.0 2.0 0.00 0.00 0.00 91 1019.5
20260902115541 71 96 0.0 2.0 0.00 0.00 0.00 91 1019.5
20260902115040 71 96 0.0 1.0 0.00 0.00 0.00 92 1019.4
20260902114542 70 96 0.0 1.0 0.00 0.00 0.00 92 1019.3
20260902114036 70 96 0.0 1.0 0.00 0.00 0.00 93 1019.4
20260902113536 70 96 0.0 0.0 0.00 0.00 0.00 93 1019.4
20260902113135 70 96 0.0 3.0 0.00 0.00 0.00 93 1019.2
20260902112535 70 96 0.0 3.0 0.00 0.00 0.00 93 1019.2
20260902112036 70 96 0.0 3.0 0.00 0.00 0.00 93 1019.1
20260902111544 70 96 0.0 1.0 0.00 0.00 0.00 93 1019.1
20260902111034 70 96 0.0 1.0 0.00 0.00 0.00 93 1019.1
20260902110534 70 96 0.0 1.0 0.00 0.00 0.00 93 1019.1
20260902110037 70 96 0.0 1.0 0.00 0.00 0.00 93 1019.0
20260902105533 70 96 0.0 1.0 0.00 0.00 0.00 93 1018.9
20260902105032 70 96 0.0 0.0 0.00 0.00 0.00 93 1018.9
20260902104535 70 96 0.0 1.0 0.00 0.00 0.00 93 1018.9
20260902104031 70 95 0.0 1.0 0.00 0.00 0.00 93 1018.9
20260902103530 70 96 0.0 1.0 0.00 0.00 0.00 92 1018.9
20260902103132 70 96 0.0 0.0 0.00 0.00 0.00 93 1018.8
20260902102534 70 96 0.0 0.0 0.00 0.00 0.00 92 1018.8
20260902102031 70 96 0.0 1.0 0.00 0.00 0.00 92 1018.8
20260902101531 70 96 0.0 1.0 0.00 0.00 0.00 92 1018.8
20260902101030 70 96 0.0 0.0 0.00 0.00 0.00 93 1018.8
20260902100530 70 96 0.0 0.0 0.00 0.00 0.00 93 1018.7
20260902100034 70 96 0.0 1.0 0.00 0.00 0.00 93 1018.7
20260902095529 70 96 0.0 1.0 0.00 0.00 0.00 93 1018.6
20260902095028 70 96 0.0 0.0 0.00 0.00 0.00 93 1018.6
20260902094528 70 96 0.0 0.0 0.00 0.00 0.00 93 1018.5
20260902094031 70 96 0.0 0.0 0.00 0.00 0.00 93 1018.4
20260902093528 70 96 0.0 0.0 0.00 0.00 0.00 93 1018.4
20260902093127 70 96 0.0 1.0 0.00 0.00 0.00 93 1018.3
20260902092527 70 96 0.0 1.0 0.00 0.00 0.00 93 1018.3
20260902092028 71 96 0.0 1.0 0.00 0.00 0.00 93 1018.2
20260902091527 71 96 0.0 1.0 0.00 0.00 0.00 93 1018.2
20260902091031 71 96 0.0 1.0 0.00 0.00 0.00 93 1018.2
20260902090527 71 96 0.0 1.0 0.00 0.00 0.00 93 1018.2
20260902090035 71 96 0.0 1.0 0.00 0.00 0.00 93 1018.1
20260902085525 71 96 0.0 2.0 0.00 0.00 0.00 92 1018.1
20260902085025 71 96 0.0 2.0 0.00 0.00 0.00 92 1018.2
20260902084525 71 96 0.0 0.0 0.00 0.00 0.00 92 1018.2
20260902084026 71 96 0.0 1.0 0.00 0.00 0.00 92 1018.1
20260902083526 71 96 0.0 1.0 0.00 0.00 0.00 92 1018.1
20260902083124 71 96 0.0 1.0 0.00 0.00 0.00 92 1018.0
20260902082524 71 96 0.0 1.0 0.00 0.00 0.00 92 1018.1
20260902082023 71 96 0.0 1.0 0.00 0.00 0.00 92 1017.9
20260902081522 71 96 0.0 0.0 0.00 0.00 0.00 92 1017.9
20260902081022 71 96 0.0 0.0 0.00 0.00 0.00 92 1018.0
20260902080523 72 96 0.0 1.0 0.00 0.00 0.00 92 1018.0
20260902080022 72 96 0.0 1.0 0.00 0.00 0.00 92 1018.1
20260902075521 72 96 0.0 1.0 0.00 0.00 0.00 92 1017.9
20260902075021 72 96 0.0 1.0 0.00 0.00 0.00 91 1018.0
20260902074520 72 96 0.0 0.0 0.00 0.00 0.00 91 1018.0
20260902074021 72 96 0.0 2.0 0.00 0.00 0.00 91 1018.0
20260902073525 72 96 0.0 2.0 0.00 0.00 0.00 91 1018.1
20260902073019 72 96 0.0 3.0 0.00 0.00 0.00 91 1018.1
20260902072518 72 96 0.0 3.0 0.00 0.00 0.00 91 1018.1
20260902072018 72 96 0.0 2.0 0.00 0.00 0.00 90 1018.1
20260902071518 73 96 0.0 1.0 0.00 0.00 0.00 90 1018.0
20260902071018 73 96 0.0 2.0 0.00 0.00 0.00 90 1018.0
20260902070517 73 96 0.0 2.0 0.00 0.00 0.00 90 1018.1
20260902070117 73 96 0.0 0.0 0.00 0.00 0.00 90 1018.1
20260902065516 73 96 0.0 0.0 0.00 0.00 0.00 90 1018.0
20260902065020 73 96 0.0 0.0 0.00 0.00 0.00 90 1018.1
20260902064527 73 96 0.0 0.0 0.00 0.00 0.00 91 1017.9
20260902064016 73 96 0.0 0.0 0.00 0.00 0.00 91 1018.0
20260902063514 73 96 0.0 0.0 0.00 0.00 0.00 91 1018.1
20260902063015 73 96 0.0 0.0 0.00 0.00 0.00 91 1018.1
20260902062515 73 96 0.0 0.0 0.00 0.00 0.00 91 1018.1
20260902062014 73 96 0.0 0.0 0.00 0.00 0.00 91 1018.1
20260902061513 73 96 0.0 0.0 0.00 0.00 0.00 91 1018.2
20260902061011 73 96 0.0 0.0 0.00 0.00 0.00 91 1018.2
20260902060514 73 96 0.0 0.0 0.00 0.00 0.00 91 1018.3
20260902060116 73 96 0.0 0.0 0.00 0.00 0.00 90 1018.3
20260902055513 74 96 0.0 0.0 0.00 0.00 0.00 89 1018.3
20260902055008 73 96 0.0 0.0 0.00 0.00 0.00 89 1018.3
20260902054507 73 96 0.0 0.0 0.00 0.00 0.00 90 1018.2
20260902054005 73 96 0.0 0.0 0.00 0.00 0.00 90 1018.3
20260902053503 73 96 0.0 0.0 0.00 0.00 0.00 90 1018.3
20260902053006 73 96 0.0 0.0 0.00 0.00 0.00 90 1018.3
20260902052600 74 96 0.0 0.0 0.00 0.00 0.00 90 1018.3
20260902052059 74 96 0.0 0.0 0.00 0.00 0.00 90 1018.3
20260902051559 74 96 0.0 0.0 0.00 0.00 0.00 89 1018.2
20260902051100 74 96 0.0 0.0 0.00 0.00 0.00 88 1018.1
20260902050600 75 96 0.0 0.0 0.00 0.00 0.00 87 1018.1
20260902050059 75 96 0.0 0.0 0.00 0.00 0.00 86 1018.1
20260902045559 75 96 0.0 0.0 0.00 0.00 0.00 86 1018.1
20260902045059 75 95 0.0 2.0 0.00 0.00 0.00 86 1018.0
20260902044558 75 96 0.0 2.0 0.00 0.00 0.00 86 1018.1
20260902044057 75 96 0.0 2.0 0.00 0.00 0.00 86 1018.1
20260902043557 75 96 0.0 4.0 0.00 0.00 0.00 86 1018.1